Regional Weather Roundup
Issued by NWS Kansas City/Pleasant Hill, MO

Home | Current Version | Previous Version | Graphics & Text | Print | Product List | Glossary Off
Versions: 1 2 3 4 5 6 7 8 9 10 11 12 13 14 15 16 17 18 19 20 21 22 23 24 25 26 27

000
ASUS43 KEAX 261010
RWREAX

WEATHER ROUNDUP FOR EASTERN KANSAS AND NORTHWEST MISSOURI
NATIONAL WEATHER SERVICE KANSAS CITY/PLEASANT HILL MO
500 AM CDT WED APR 26 2017

KSZ040-057-103>105-MOZ028-029-037-043-261100-
...KANSAS CITY METROPOLITAN AREA...

CITY           SKY/WX    TMP DP  RH WIND       PRES   REMARKS
K.C. INTL      CLOUDY    44  43  96 NW13G22   29.53F
K.C. DOWNTOWN  LGT RAIN  47  44  90 N8        29.54R
LEES SUMMIT    CLOUDY    46  45  96 N13       29.53R FOG
OLATHE - IXD   CLOUDY    45  43  93 NW22      29.55R
OLATHE - OJC   CLOUDY    45  45 100 N10       29.54R FOG
LAWRENCE       LGT RAIN  44  42  93 NW20      29.58R

$$

MOZ001>008-011>017-020>025-030>033-038>040-044>046-053-054-261100-
...NORTHERN AND CENTRAL MISSOURI...

CITY           SKY/WX    TMP DP  RH WIND       PRES   REMARKS
ST. JOSEPH     LGT RAIN  44  43  96 N16       29.55S
MOSBY          HVY RAIN  46  43  87 NW12      29.54R
WHITEMAN AFB   DRIZZLE   52  52 100 NW15      29.49R FOG
CLINTON        CLOUDY    59  59 100 W7        29.49R
SEDALIA        CLOUDY    61  32  33 W10G21    29.48R
WARSAW         NOT AVBL
CHILLICOTHE      N/A     49  46  90 NW7       29.51S
KIRKSVILLE     CLOUDY    54  53  97 NW8       29.44F

$$

MOZ041-047>049-056>058-063>065-088>090-097-261100-
...EASTERN AND SOUTHERN MISSOURI...

CITY           SKY/WX    TMP DP  RH WIND       PRES   REMARKS
ST. LOUIS INTL LGT RAIN  71  57  61 SW29G43   29.51R
SPIRIT OF STL  LGT RAIN  65  58  78 W23G36    29.52R
COLUMBIA       CLOUDY    58  58 100 E17       29.33F
JEFFERSON CITY CLOUDY    62  59  90 S8        29.44F
ROLLA          LGT RAIN  58  57  97 E10       29.46F
OSAGE BEACH    CLOUDY    58  57  97 NW3       29.46R
SPRINGFIELD    CLOUDY    57  56  96 S13       29.50R
BRANSON        LGT RAIN  57  57 100 SE12      29.52F
JOPLIN         CLOUDY    60  59  96 W10       29.49F
WEST PLAINS    CLOUDY    59  56  89 SE3       29.58F

$$

IAZ060-094-KSZ022-034>040-054-083-096-NEZ052-066-093-261100-
...KANSAS...SOUTHEAST NEBRASKA AND IOWA...

CITY           SKY/WX    TMP DP  RH WIND       PRES   REMARKS
TOPEKA         CLOUDY    44  40  85 NW15G22   29.59R
MANHATTAN      CLOUDY    42  34  73 VRB7G20   29.64R
EMPORIA        CLOUDY    43  41  93 NW17G24   29.58R
CHANUTE        CLOUDY    48  45  89 N13       29.57R
WICHITA        CLOUDY    45  39  79 N13G23    29.66R
OMAHA          DRIZZLE   38  34  85 NW15G25   29.62R FOG     WCI  29
LINCOLN        CLOUDY    38  32  79 NW23G30   29.68R WCI  27
FALLS CITY     CLOUDY    40  36  86 NW16G28   29.58R WCI  31
LAMONI         LGT RAIN  44  42  93 NW15      29.50S
DES MOINES     CLOUDY    46  42  86 NW18G24   29.48S

$$





USA.gov is the U.S. government's official web portal to all federal, state and local government web resources and services.